Location: Dodge City Community College Clyde Tombaugh Astronomy Center
(37.7756°N, 100.0412°W)
Time: 01:21:44
(UTC+00:00)

Cosmos 2228 Rocket - Pass Details

Date: 30 June 2022
Orbit: 618 x 651 km, 82.5° (Epoch: 09 August)

Event Time Altitude Azimuth Distance (km) Brightness Sun altitude
Rises 09:22:09 0° 17° (NNE) 2,910 7.8 -18.6°
Reaches altitude 10° 09:26:07 10° 53° (NE) 2,005 6.9 -18.1°
Maximum altitude 09:27:26 11° 70° (ENE) 1,928 6.4 -18.0°
Drops below altitude 10° 09:28:46 10° 88° (E) 2,006 6.2 -17.8°
Sets 09:32:43 0° 123° (ESE) 2,916 6.6 -17.3°
